• In Hungary
  • List of Countries
  • For 7 days
  • Water Temperature
  • Satellite Maps
  • Weather Map
  • News
  • Weather Widgets
  • user-avatar
    Login

    Hourly Weather Goa

    Today, 16 August, Wednesday

    Time Temperature Precipitation Wind Pressure Humidity
    00:00 +28°C° 0.9 mm 3 mps 752 mmHg 84%
    01:00 +27°C° 0.9 mm 3 mps 752 mmHg 85%
    02:00 +27°C° 0.9 mm 2 mps 751 mmHg 85%
    03:00 +27°C° 0.2 mm 2 mps 751 mmHg 86%
    04:00 +27°C° 0.2 mm 2 mps 751 mmHg 86%
    05:00 +26°C° 0 mm 2 mps 751 mmHg 87%
    06:00 +27°C° 0.9 mm 2 mps 751 mmHg 82%
    07:00 +29°C° 0.9 mm 2 mps 752 mmHg 77%
    08:00 +30°C° 0.9 mm 1 mps 752 mmHg 73%
    09:00 +31°C° 0.2 mm 2 mps 752 mmHg 68%
    10:00 +32°C° 0.2 mm 2 mps 752 mmHg 64%
    11:00 +32°C° 0 mm 2 mps 752 mmHg 63%
    12:00 +34°C° 0.2 mm 3 mps 752 mmHg 63%
    13:00 +34°C° 0.2 mm 4 mps 751 mmHg 63%
    14:00 +34°C° 0.2 mm 4 mps 751 mmHg 62%
    15:00 +33°C° 0.6 mm 5 mps 751 mmHg 65%
    16:00 +33°C° 0.6 mm 5 mps 751 mmHg 67%
    17:00 +32°C° 0.6 mm 5 mps 750 mmHg 70%
    18:00 +30°C° 0.7 mm 5 mps 751 mmHg 74%
    19:00 +29°C° 0.7 mm 5 mps 751 mmHg 78%
    20:00 +28°C° 0.7 mm 5 mps 751 mmHg 82%
    21:00 +28°C° 0.4 mm 4 mps 751 mmHg 83%
    22:00 +28°C° 0.4 mm 4 mps 751 mmHg 84%
    23:00 +28°C° 0.4 mm 4 mps 751 mmHg 84%

    Tomorrow, 17 August, Thursday

    Time Temperature Precipitation Wind Pressure Humidity
    00:00 +27°C° 0 mm 4 mps 751 mmHg 85%
    01:00 +27°C° 0 mm 4 mps 750 mmHg 86%
    02:00 +27°C° 0 mm 3 mps 750 mmHg 86%
    03:00 +27°C° 0.1 mm 3 mps 750 mmHg 87%
    04:00 +27°C° 0.1 mm 3 mps 750 mmHg 87%
    05:00 +26°C° 0.1 mm 3 mps 749 mmHg 88%
    06:00 +27°C° 0.2 mm 3 mps 750 mmHg 85%
    07:00 +28°C° 0.2 mm 3 mps 750 mmHg 82%
    08:00 +28°C° 0.2 mm 2 mps 751 mmHg 80%
    09:00 +29°C° 0.4 mm 3 mps 751 mmHg 75%
    10:00 +31°C° 0.4 mm 3 mps 750 mmHg 70%
    11:00 +33°C° 0.4 mm 3 mps 750 mmHg 66%
    12:00 +33°C° 0.7 mm 4 mps 750 mmHg 66%
    13:00 +33°C° 0.7 mm 5 mps 749 mmHg 67%
    14:00 +33°C° 0.7 mm 5 mps 749 mmHg 67%
    15:00 +32°C° 0.5 mm 5 mps 749 mmHg 69%
    16:00 +30°C° 0.5 mm 5 mps 749 mmHg 72%
    17:00 +30°C° 0.5 mm 5 mps 748 mmHg 74%
    18:00 +29°C° 0.9 mm 5 mps 749 mmHg 77%
    19:00 +29°C° 0.9 mm 5 mps 749 mmHg 80%
    20:00 +28°C° 0.9 mm 4 mps 750 mmHg 83%
    21:00 +28°C° 1 mm 4 mps 750 mmHg 84%
    22:00 +28°C° 1 mm 4 mps 750 mmHg 85%
    23:00 +27°C° 1 mm 4 mps 750 mmHg 86%

    Day after tomorrow, 18 August, Friday

    Time Temperature Precipitation Wind Pressure Humidity
    00:00 +27°C° 0.6 mm 3 mps 750 mmHg 86%
    01:00 +27°C° 0.6 mm 3 mps 749 mmHg 87%
    02:00 +27°C° 0.6 mm 3 mps 749 mmHg 87%
    03:00 +26°C° 1 mm 3 mps 749 mmHg 88%
    04:00 +26°C° 1 mm 4 mps 749 mmHg 88%
    05:00 +26°C° 1 mm 4 mps 749 mmHg 89%
    06:00 +27°C° 0.5 mm 4 mps 749 mmHg 86%
    07:00 +28°C° 0.5 mm 4 mps 750 mmHg 82%
    08:00 +28°C° 0.5 mm 4 mps 750 mmHg 79%
    09:00 +30°C° 1 mm 4 mps 750 mmHg 74%
    10:00 +32°C° 1 mm 5 mps 750 mmHg 69%
    11:00 +33°C° 1 mm 5 mps 750 mmHg 65%
    12:00 +33°C° 1.4 mm 5 mps 750 mmHg 65%
    13:00 +33°C° 1.4 mm 6 mps 749 mmHg 66%
    14:00 +33°C° 1.4 mm 6 mps 749 mmHg 66%
    15:00 +32°C° 0.9 mm 6 mps 749 mmHg 68%
    16:00 +32°C° 0.9 mm 6 mps 748 mmHg 70%
    17:00 +30°C° 0.9 mm 6 mps 748 mmHg 73%
    18:00 +29°C° 0.9 mm 5 mps 749 mmHg 76%
    19:00 +29°C° 0.9 mm 5 mps 750 mmHg 79%
    20:00 +28°C° 0.9 mm 5 mps 750 mmHg 83%
    21:00 +28°C° 0.4 mm 5 mps 750 mmHg 84%
    22:00 +28°C° 0.4 mm 5 mps 750 mmHg 84%
    23:00 +27°C° 0.4 mm 4 mps 751 mmHg 85%

    19 August, Saturday

    Time Temperature Precipitation Wind Pressure Humidity
    00:00 +27°C° 1.1 mm 5 mps 750 mmHg 85%
    01:00 +27°C° 1.1 mm 5 mps 749 mmHg 86%
    02:00 +27°C° 1.1 mm 5 mps 749 mmHg 86%
    03:00 +27°C° 0.8 mm 5 mps 749 mmHg 87%
    04:00 +27°C° 0.8 mm 5 mps 749 mmHg 87%
    05:00 +26°C° 0.8 mm 5 mps 749 mmHg 88%
    06:00 +27°C° 1.2 mm 5 mps 749 mmHg 85%
    07:00 +28°C° 1.2 mm 5 mps 750 mmHg 82%
    08:00 +28°C° 1.2 mm 5 mps 750 mmHg 78%
    09:00 +29°C° 1 mm 5 mps 750 mmHg 74%
    10:00 +30°C° 1 mm 5 mps 750 mmHg 70%
    11:00 +32°C° 1 mm 5 mps 751 mmHg 66%
    12:00 +32°C° 1.1 mm 5 mps 750 mmHg 65%
    13:00 +32°C° 1.1 mm 6 mps 749 mmHg 65%
    14:00 +32°C° 1.1 mm 6 mps 749 mmHg 64%
    15:00 +32°C° 0.8 mm 6 mps 749 mmHg 67%
    16:00 +30°C° 0.8 mm 5 mps 749 mmHg 69%
    17:00 +29°C° 0.8 mm 5 mps 749 mmHg 72%
    18:00 +29°C° 0.7 mm 5 mps 749 mmHg 75%
    19:00 +28°C° 0.7 mm 5 mps 750 mmHg 78%
    20:00 +28°C° 0.7 mm 4 mps 750 mmHg 80%
    21:00 +27°C° 1.2 mm 4 mps 750 mmHg 81%
    22:00 +27°C° 1.2 mm 4 mps 751 mmHg 82%
    23:00 +27°C° 1.2 mm 4 mps 751 mmHg 83%

    20 August, Sunday

    Time Temperature Precipitation Wind Pressure Humidity
    00:00 +27°C° 0.9 mm 5 mps 750 mmHg 84%
    01:00 +26°C° 0.9 mm 5 mps 750 mmHg 84%
    02:00 +26°C° 0.9 mm 5 mps 749 mmHg 85%
    03:00 +26°C° 0.8 mm 5 mps 749 mmHg 85%
    04:00 +26°C° 0.8 mm 5 mps 749 mmHg 85%
    05:00 +26°C° 0.8 mm 5 mps 749 mmHg 85%
    06:00 +27°C° 0.9 mm 5 mps 749 mmHg 82%
    07:00 +28°C° 0.9 mm 4 mps 750 mmHg 79%
    08:00 +28°C° 0.9 mm 4 mps 750 mmHg 76%
    09:00 +30°C° 1 mm 4 mps 750 mmHg 70%
    10:00 +32°C° 1 mm 4 mps 750 mmHg 65%
    11:00 +33°C° 1 mm 5 mps 750 mmHg 59%
    12:00 +33°C° 0.8 mm 5 mps 750 mmHg 60%
    13:00 +33°C° 0.8 mm 6 mps 749 mmHg 62%
    14:00 +33°C° 0.8 mm 7 mps 748 mmHg 63%
    15:00 +32°C° 1 mm 7 mps 748 mmHg 66%
    16:00 +30°C° 1 mm 7 mps 748 mmHg 69%
    17:00 +30°C° 1 mm 7 mps 748 mmHg 72%
    18:00 +29°C° 0.6 mm 7 mps 749 mmHg 76%
    19:00 +28°C° 0.6 mm 7 mps 749 mmHg 79%
    20:00 +27°C° 0.6 mm 6 mps 750 mmHg 83%
    21:00 +27°C° 0.7 mm 6 mps 750 mmHg 83%
    22:00 +27°C° 0.7 mm 6 mps 750 mmHg 83%
    23:00 +27°C° 0.7 mm 6 mps 750 mmHg 84%

    21 August, Monday

    Time Temperature Precipitation Wind Pressure Humidity
    00:00 +27°C° 0.8 mm 6 mps 750 mmHg 84%
    01:00 +27°C° 0.8 mm 6 mps 749 mmHg 85%
    02:00 +27°C° 0.8 mm 6 mps 748 mmHg 85%
    03:00 +26°C° 0.9 mm 6 mps 748 mmHg 86%
    04:00 +26°C° 0.9 mm 6 mps 748 mmHg 87%
    05:00 +26°C° 0.9 mm 6 mps 748 mmHg 88%
    06:00 +27°C° 0.7 mm 6 mps 749 mmHg 86%
    07:00 +27°C° 0.7 mm 6 mps 749 mmHg 84%
    08:00 +28°C° 0.7 mm 6 mps 750 mmHg 81%
    09:00 +29°C° 0.7 mm 6 mps 750 mmHg 80%
    10:00 +29°C° 0.7 mm 6 mps 749 mmHg 78%
    11:00 +30°C° 0.7 mm 6 mps 749 mmHg 76%
    12:00 +30°C° 0.8 mm 6 mps 749 mmHg 77%
    13:00 +30°C° 0.8 mm 7 mps 748 mmHg 77%
    14:00 +30°C° 0.8 mm 7 mps 747 mmHg 77%
    15:00 +29°C° 0.6 mm 7 mps 747 mmHg 79%
    16:00 +29°C° 0.6 mm 7 mps 747 mmHg 81%
    17:00 +29°C° 0.6 mm 7 mps 747 mmHg 82%
    18:00 +28°C° 0.6 mm 7 mps 747 mmHg 85%
    19:00 +27°C° 0.6 mm 6 mps 748 mmHg 88%
    20:00 +27°C° 0.6 mm 6 mps 748 mmHg 91%
    21:00 +27°C° 0.7 mm 6 mps 748 mmHg 91%
    22:00 +27°C° 0.7 mm 6 mps 749 mmHg 91%
    23:00 +27°C° 0.7 mm 5 mps 749 mmHg 91%
    Show more